Starlink 31163

operational
NORAD ID: 58807 Int'l Des: 2024-012 Owner: SPXS Country: US Constellation: starlink
LEOCIRCULAR

Über Starlink 31163

Beschreibung wird geladen...

Live-Position

3D-Globus wird geladen...

Nächste Überflüge

Höhenverlauf

Altitude vs Time

uPlot chart will show altitude changes over time

Zweizeiliger Elementsatz

1 58807U 24012W 25351.12764525 .00001485 00000-0 63454-4 0 9999
2 58807 43.0009 271.1314 0001111 272.8134 87.2591 15.27586532108618
Epoch: 17. Dez. 2025 • Age: 16 hours

Aktueller Status

Höhe 486.1 km
Geschwindigkeit 7.63 km/s
Subsatellitenpunkt 39.43°N, 10.72°E
Startdatum 15. Jan. 2024
Alter 1.9 years
Typ internet

Technische Details

Klassifizierung Payload
Masse 730.00 kg
Trockenmasse 700.00 kg
Gesamtmasse 730.00 kg
Länge 0.30 m
Durchmesser 4.10 m
Spannweite 29.00 m
Form Box + pan
Hersteller SPXS
Bus-Typ Starlink V2M
Phasenstatus In Orbit
Besitzer/Staat SPXS/US

Große Konstellationen

Loading constellations...